Time,TemperatureF,DewpointF,PressureIn,WindDirection,WindDirectionDegrees,WindSpeedMPH,WindSpeedGustMPH,Humidity,HourlyPrecipIn,Conditions,Clouds,dailyrainin,SoftwareType,DateUTC
2013-10-04 00:00:00,84.6,78.9,29.86,ENE,68,8.0,17.0,83,0.00,,,0.00,VWS V14.01,2013-10-04 06:00:00,
2013-10-04 00:30:00,84.6,79.2,29.86,ENE,68,7.0,15.0,84,0.00,,,0.00,VWS V14.01,2013-10-04 06:30:00,
2013-10-04 01:00:00,84.5,79.5,29.85,ENE,68,6.0,17.0,85,0.00,,,0.00,VWS V14.01,2013-10-04 07:00:00,
2013-10-04 01:30:00,84.1,79.1,29.84,ENE,68,5.0,10.0,85,0.00,,,0.00,VWS V14.01,2013-10-04 07:30:00,
2013-10-04 02:00:00,83.8,78.8,29.85,ENE,68,4.0,9.0,85,0.00,,,0.00,VWS V14.01,2013-10-04 08:00:00,
2013-10-04 02:30:00,83.5,78.5,29.83,ENE,68,3.0,6.0,85,0.00,,,0.00,VWS V14.01,2013-10-04 08:30:00,
2013-10-04 03:00:00,83.6,78.3,29.83,ENE,68,4.0,9.0,84,0.00,,,0.00,VWS V14.01,2013-10-04 09:00:00,
2013-10-04 03:30:00,83.6,77.5,29.83,ENE,68,4.0,9.0,82,0.00,,,0.00,VWS V14.01,2013-10-04 09:30:00,
2013-10-04 04:00:00,83.8,78.4,29.83,ENE,68,6.0,12.0,84,0.00,,,0.00,VWS V14.01,2013-10-04 10:00:00,
2013-10-04 04:30:00,83.7,78.3,29.83,ENE,68,6.0,11.0,84,0.00,,,0.00,VWS V14.01,2013-10-04 10:30:00,
2013-10-04 05:00:00,83.6,77.5,29.84,ENE,68,4.0,8.0,82,0.00,,,0.00,VWS V14.01,2013-10-04 11:00:00,
2013-10-04 05:30:00,83.5,77.8,29.85,ENE,68,3.0,8.0,83,0.00,,,0.00,VWS V14.01,2013-10-04 11:30:00,
2013-10-04 06:00:00,83.3,77.6,29.85,ENE,68,3.0,8.0,83,0.00,,,0.00,VWS V14.01,2013-10-04 12:00:00,
2013-10-04 06:30:00,84.1,78.0,29.86,ENE,68,2.0,6.0,82,0.00,,,0.00,VWS V14.01,2013-10-04 12:30:00,
2013-10-04 07:00:00,85.2,78.3,29.86,ENE,68,4.0,9.0,80,0.00,,,0.00,VWS V14.01,2013-10-04 13:00:00,
2013-10-04 07:30:00,85.7,79.2,29.88,ESE,112,3.0,9.0,81,0.00,,,0.00,VWS V14.01,2013-10-04 13:30:00,
2013-10-04 08:00:00,86.0,78.3,29.89,East,90,5.0,11.0,78,0.00,,,0.00,VWS V14.01,2013-10-04 14:00:00,
2013-10-04 08:30:00,86.2,77.8,29.89,East,90,5.0,10.0,76,0.00,,,0.00,VWS V14.01,2013-10-04 14:30:00,
2013-10-04 09:00:00,86.4,77.1,29.90,ENE,68,6.0,11.0,74,0.00,,,0.00,VWS V14.01,2013-10-04 15:00:00,
2013-10-04 09:30:00,86.8,76.3,29.90,ENE,68,6.0,11.0,71,0.00,,,0.00,VWS V14.01,2013-10-04 15:30:00,
2013-10-04 10:00:00,86.8,77.9,29.90,ENE,68,5.0,12.0,75,0.00,,,0.00,VWS V14.01,2013-10-04 16:00:00,
2013-10-04 10:30:00,87.7,78.8,29.90,East,90,5.0,10.0,75,0.00,,,0.00,VWS V14.01,2013-10-04 16:30:00,
2013-10-04 11:00:00,88.2,78.9,29.89,ESE,112,4.0,9.0,74,0.00,,,0.00,VWS V14.01,2013-10-04 17:00:00,
2013-10-04 11:30:00,89.1,78.5,29.88,ESE,112,4.0,8.0,71,0.00,,,0.00,VWS V14.01,2013-10-04 17:30:00,
2013-10-04 12:00:00,87.9,78.2,29.86,ENE,68,4.0,9.0,73,0.00,,,0.00,VWS V14.01,2013-10-04 18:00:00,
2013-10-04 12:30:00,89.1,78.0,29.85,ENE,68,3.0,8.0,70,0.00,,,0.00,VWS V14.01,2013-10-04 18:30:00,
2013-10-04 13:00:00,89.0,76.2,29.85,ENE,68,5.0,11.0,66,0.00,,,0.00,VWS V14.01,2013-10-04 19:00:00,
2013-10-04 13:30:00,88.3,77.7,29.83,ENE,68,6.0,15.0,71,0.00,,,0.00,VWS V14.01,2013-10-04 19:30:00,
2013-10-04 14:00:00,88.1,78.8,29.82,ENE,68,7.0,14.0,74,0.00,,,0.00,VWS V14.01,2013-10-04 20:00:00,
2013-10-04 14:30:00,88.2,79.3,29.82,ENE,68,6.0,14.0,75,0.00,,,0.00,VWS V14.01,2013-10-04 20:30:00,
2013-10-04 15:00:00,88.8,78.6,29.82,ENE,68,5.0,12.0,72,0.00,,,0.00,VWS V14.01,2013-10-04 21:00:00,
2013-10-04 15:30:00,88.2,78.4,29.82,NE,45,5.0,13.0,73,0.00,,,0.00,VWS V14.01,2013-10-04 21:30:00,
2013-10-04 16:00:00,87.2,79.1,29.82,NE,45,5.0,12.0,77,0.00,,,0.00,VWS V14.01,2013-10-04 22:00:00,
2013-10-04 16:30:00,87.7,79.2,29.81,NE,45,4.0,11.0,76,0.00,,,0.00,VWS V14.01,2013-10-04 22:30:00,
2013-10-04 17:00:00,86.4,79.5,29.82,NNE,22,4.0,13.0,80,0.00,,,0.00,VWS V14.01,2013-10-04 23:00:00,
2013-10-04 17:30:00,85.2,79.1,29.83,NNE,22,4.0,11.0,82,0.00,,,0.00,VWS V14.01,2013-10-04 23:30:00,
2013-10-04 18:00:00,85.4,78.9,29.85,NE,45,5.0,14.0,81,0.00,,,0.00,VWS V14.01,2013-10-05 00:00:00,
2013-10-04 18:30:00,85.4,78.9,29.86,ENE,68,6.0,15.0,81,0.00,,,0.00,VWS V14.01,2013-10-05 00:30:00,
2013-10-04 19:00:00,85.3,79.6,29.88,NE,45,5.0,14.0,83,0.00,,,0.00,VWS V14.01,2013-10-05 01:00:00,
2013-10-04 19:30:00,85.3,79.6,29.89,ENE,68,7.0,15.0,83,0.00,,,0.00,VWS V14.01,2013-10-05 01:30:00,
2013-10-04 20:00:00,85.2,79.1,29.90,ENE,68,7.0,14.0,82,0.00,,,0.00,VWS V14.01,2013-10-05 02:00:00,
2013-10-04 20:30:00,85.1,79.0,29.91,ENE,68,7.0,13.0,82,0.00,,,0.00,VWS V14.01,2013-10-05 02:30:00,
2013-10-04 21:00:00,85.2,79.1,29.91,ENE,68,8.0,17.0,82,0.00,,,0.00,VWS V14.01,2013-10-05 03:00:00,
2013-10-04 21:30:00,85.1,79.0,29.91,ENE,68,7.0,15.0,82,0.00,,,0.00,VWS V14.01,2013-10-05 03:30:00,
2013-10-04 22:00:00,85.0,79.3,29.91,ENE,68,7.0,16.0,83,0.00,,,0.00,VWS V14.01,2013-10-05 04:00:00,
2013-10-04 22:30:00,84.9,79.2,29.90,ENE,68,7.0,15.0,83,0.00,,,0.00,VWS V14.01,2013-10-05 04:30:00,
2013-10-04 23:00:00,85.0,79.3,29.90,NE,45,7.0,17.0,83,0.00,,,0.00,VWS V14.01,2013-10-05 05:00:00,
2013-10-04 23:30:00,84.7,79.0,29.89,ENE,68,8.0,16.0,83,0.00,,,0.00,VWS V14.01,2013-10-05 05:30:00,